Regional Weather Roundup
Issued by NWS

Home | Current Version | Previous Version | Text Only | Print | Product List | Glossary On
Versions: 1 2 3 4 5 6 7 8 9 10 11 12 13 14 15 16 17 18 19 20 21 22 23 24 25 26 27
000
ASPQ40 PGUM 270110
RWRPQ
WEATHER ROUNDUP FOR THE MARIANAS AND MICRONESIA
NATIONAL WEATHER SERVICE TIYAN GU
1100 AM CHST FRI APR 27 2018

GUZ001>004-270200-
MARIANA ISLANDS-

CITY           SKY/WX    TMP DP  RH WIND       PRES   REMARKS
GUAM AIRPORT   LGT RAIN  82  81  94 E13       29.89F HX  95
ANDERSEN AFB   PTSUNNY   82  77  83 E17G23    29.90F HX  91
ROTA AIRPORT   LGT RAIN  81  77  89 E20       29.90F
TINIAN AP      PTSUNNY   79  77  94 NE17      29.89F
SAIPAN AP      LGT RAIN  82  81  94 E14       29.90F HX  95

$$

PMZ161-270200-
REPUBLIC OF PALAU-

CITY           SKY/WX    TMP DP  RH WIND       PRES   REMARKS
KOROR AP       PTSUNNY   82  77  83 N3        29.85S HX  91
KOROR WSO      CLOUDY    82  79  89 W3        29.86S HX  93

$$

PMZ171>174-270200-
FEDERATED STATES OF MICRONESIA-

CITY           SKY/WX    TMP DP  RH WIND       PRES   REMARKS
YAP AIRPORT    PTSUNNY   90  79  70 VRB7      29.86F HX 105
CHUUK AP       PTSUNNY   86  82  89 NE8       29.81  HX 105
POHNPEI AP     LGT RAIN  79  77  94 E5        29.85F
POHNPEI WSO    NOT AVBL
KOSRAE AP      LGT RAIN  81  79  94 NE9       29.80F

$$

PMZ181-270200-
REPUBLIC OF THE MARSHALL ISLANDS-

CITY           SKY/WX    TMP DP  RH WIND       PRES   REMARKS
KWAJALEIN AP   CLOUDY    84  77  79 E16G22    29.77S HX  94
MAJURO AP      NOT AVBL
MAJURO WSO     LGT RAIN  81  77  89 S8        29.80

$$





USA.gov is the U.S. government's official web portal to all federal, state and local government web resources and services.